Radiation Dose at Monitoring Post of Fukushima Daini Nuclear Power Station
Date,Time,MP-1(microSv/h),MP-2(microSv/h),MP-3(microSv/h),MP-4(microSv/h),MP-5(microSv/h),MP-6(microSv/h),MP-7(microSv/h),Wind Direction,Wind Velocity(m/s),Rain
2020/01/29,00:00,0.177,0.167,0.266,0.247,0.253,0.141,0.093,east-northeast,9.8,Yes
2020/01/29,00:10,0.178,0.166,0.266,0.246,0.252,0.140,0.093,east-northeast,8.6,Yes
2020/01/29,00:20,0.175,0.167,0.267,0.246,0.252,0.141,0.092,east-northeast,9.0,Yes
2020/01/29,00:30,0.175,0.165,0.264,0.247,0.251,0.140,0.091,east-northeast,8.7,Yes
2020/01/29,00:40,0.175,0.166,0.265,0.245,0.251,0.140,0.092,northeast,9.2,Yes
2020/01/29,00:50,0.175,0.165,0.265,0.245,0.251,0.139,0.091,northeast,10.1,Yes
2020/01/29,01:00,0.174,0.163,0.263,0.245,0.250,0.139,0.091,northeast,10.1,Yes
2020/01/29,01:10,0.175,0.163,0.263,0.245,0.250,0.138,0.090,northeast,9.8,Yes
2020/01/29,01:20,0.174,0.163,0.263,0.245,0.251,0.139,0.090,northeast,8.7,Yes
2020/01/29,01:30,0.174,0.162,0.265,0.244,0.249,0.137,0.090,northeast,8.5,Yes
2020/01/29,01:40,0.173,0.164,0.263,0.247,0.251,0.136,0.090,northeast,9.0,Yes
2020/01/29,01:50,0.175,0.163,0.262,0.245,0.249,0.138,0.089,northeast,7.9,Yes
2020/01/29,02:00,0.173,0.162,0.264,0.241,0.249,0.137,0.089,northeast,10.3,Yes
2020/01/29,02:10,0.173,0.163,0.263,0.242,0.250,0.138,0.090,north-northeast,8.8,Yes
2020/01/29,02:20,0.173,0.163,0.262,0.245,0.249,0.137,0.091,northeast,8.7,Yes
2020/01/29,02:30,0.173,0.164,0.261,0.242,0.249,0.138,0.091,northeast,8.1,Yes
2020/01/29,02:40,0.173,0.164,0.262,0.244,0.251,0.138,0.091,northeast,8.4,Yes
2020/01/29,02:50,0.173,0.164,0.262,0.245,0.252,0.139,0.091,north-northeast,6.7,Yes
2020/01/29,03:00,0.173,0.165,0.262,0.244,0.250,0.141,0.093,north-northeast,10.1,Yes
2020/01/29,03:10,0.174,0.165,0.262,0.243,0.250,0.141,0.094,northeast,8.7,Yes
2020/01/29,03:20,0.175,0.165,0.263,0.245,0.252,0.140,0.093,northeast,8.4,Yes
2020/01/29,03:30,0.173,0.165,0.262,0.244,0.252,0.140,0.093,northeast,9.2,Yes
2020/01/29,03:40,0.173,0.165,0.262,0.245,0.251,0.140,0.093,northeast,8.4,Yes
2020/01/29,03:50,0.174,0.165,0.263,0.245,0.252,0.140,0.094,northeast,7.9,Yes
2020/01/29,04:00,0.173,0.164,0.260,0.244,0.252,0.140,0.093,northeast,8.1,Yes
2020/01/29,04:10,0.173,0.165,0.261,0.244,0.251,0.140,0.094,northeast,3.1,Yes
2020/01/29,04:20,0.173,0.166,0.260,0.246,0.251,0.141,0.096,northeast,9.2,Yes
2020/01/29,04:30,0.175,0.166,0.260,0.245,0.251,0.143,0.095,northeast,8.4,Yes
2020/01/29,04:40,0.174,0.167,0.260,0.246,0.251,0.142,0.096,east-northeast,6.6,Yes
2020/01/29,04:50,0.175,0.168,0.262,0.247,0.255,0.142,0.095,east-northeast,8.1,Yes
2020/01/29,05:00,0.175,0.165,0.261,0.247,0.252,0.142,0.096,east-northeast,9.5,Yes
2020/01/29,05:10,0.176,0.167,0.262,0.249,0.251,0.141,0.095,east-northeast,10.3,Yes
2020/01/29,05:20,0.174,0.165,0.262,0.247,0.253,0.140,0.094,east-northeast,9.8,Yes
2020/01/29,05:30,0.175,0.165,0.262,0.246,0.252,0.139,0.095,-,CALM,Yes
2020/01/29,05:40,0.174,0.164,0.261,0.245,0.252,0.138,0.093,-,CALM,Yes
2020/01/29,05:50,0.173,0.163,0.261,0.245,0.250,0.137,0.092,-,CALM,Yes
2020/01/29,06:00,0.173,0.162,0.260,0.244,0.249,0.137,0.091,-,CALM,Yes
2020/01/29,06:10,0.173,0.162,0.259,0.243,0.250,0.136,0.091,-,CALM,Yes
2020/01/29,06:20,0.173,0.161,0.258,0.244,0.250,0.135,0.091,-,CALM,Yes
2020/01/29,06:30,0.172,0.162,0.259,0.242,0.249,0.135,0.091,-,CALM,Yes
2020/01/29,06:40,0.173,0.162,0.259,0.244,0.249,0.136,0.094,-,CALM,Yes
2020/01/29,06:50,0.173,0.163,0.259,0.245,0.250,0.137,0.092,-,CALM,Yes
2020/01/29,07:00,0.172,0.163,0.261,0.243,0.250,0.136,0.092,east,11.8,Yes
2020/01/29,07:10,0.173,0.162,0.260,0.245,0.250,0.136,0.091,east-northeast,10.9,Yes
2020/01/29,07:20,0.173,0.162,0.261,0.244,0.251,0.136,0.091,east-northeast,12.5,Yes
2020/01/29,07:30,0.172,0.163,0.260,0.242,0.249,0.135,0.090,east-northeast,13.7,Yes
2020/01/29,07:40,0.172,0.162,0.260,0.243,0.249,0.134,0.090,east-northeast,13.9,Yes
2020/01/29,07:50,0.172,0.162,0.259,0.243,0.249,0.134,0.090,east-northeast,13.4,Yes
2020/01/29,08:00,0.173,0.163,0.260,0.242,0.249,0.136,0.091,east-northeast,11.7,Yes
2020/01/29,08:10,0.173,0.163,0.259,0.244,0.251,0.137,0.091,east-northeast,12.8,Yes
2020/01/29,08:20,0.172,0.163,0.260,0.243,0.249,0.137,0.091,east-northeast,14.3,Yes
2020/01/29,08:30,0.172,0.163,0.263,0.242,0.250,0.135,0.090,east-northeast,10.7,Yes
2020/01/29,08:40,0.173,0.162,0.260,0.244,0.250,0.136,0.091,east,12.3,Yes
2020/01/29,08:50,0.173,0.162,0.259,0.243,0.249,0.135,0.090,east-northeast,12.0,Yes
2020/01/29,09:00,0.173,0.163,0.261,0.243,0.250,0.136,0.091,east,12.9,Yes
2020/01/29,09:10,0.172,0.165,0.260,0.243,0.250,0.136,0.091,east-northeast,10.6,Yes
2020/01/29,09:20,0.174,0.164,0.261,0.244,0.249,0.137,0.091,east-northeast,10.1,Yes
2020/01/29,09:30,0.174,0.164,0.261,0.244,0.251,0.137,0.092,east-northeast,9.2,Yes
2020/01/29,09:40,0.174,0.165,0.262,0.245,0.250,0.139,0.092,east-northeast,9.3,Yes
2020/01/29,09:50,0.173,0.166,0.263,0.244,0.250,0.138,0.093,east,14.5,Yes
2020/01/29,10:00,0.173,0.164,0.261,0.245,0.252,0.139,0.092,east,13.1,Yes
2020/01/29,10:10,0.174,0.165,0.261,0.245,0.251,0.138,0.092,east,19.4,Yes
2020/01/29,10:20,0.174,0.165,0.261,0.245,0.250,0.138,0.094,-,CALM,Yes
2020/01/29,10:30,0.174,0.164,0.261,0.243,0.253,0.139,0.094,-,CALM,Yes
2020/01/29,10:40,0.175,0.164,0.261,0.245,0.251,0.138,0.094,east,15.4,Yes
2020/01/29,10:50,0.174,0.164,0.262,0.246,0.251,0.138,0.093,east,16.9,Yes
2020/01/29,11:00,0.174,0.162,0.261,0.246,0.251,0.138,0.091,east,17.4,Yes
2020/01/29,11:10,0.174,-,0.262,0.246,0.250,0.137,0.092,east,19.1,Yes
2020/01/29,11:20,0.173,-,0.262,0.244,0.249,0.136,0.090,east,18.7,Yes
2020/01/29,11:30,0.174,-,0.260,0.244,0.249,0.135,0.090,-,CALM,Yes
2020/01/29,11:40,0.174,-,0.261,0.246,0.249,0.134,0.089,east,18.1,Yes
2020/01/29,11:50,0.173,-,0.261,0.245,0.249,0.134,0.089,east,14.9,Yes
2020/01/29,12:00,0.174,-,0.260,0.244,0.249,0.134,0.089,east,17.4,Yes
2020/01/29,12:10,0.173,-,0.260,0.244,0.247,0.133,0.087,east,17.0,Yes
2020/01/29,12:20,0.173,-,0.261,0.245,0.247,0.134,0.087,east,19.1,Yes
2020/01/29,12:30,0.173,-,0.261,0.243,0.248,0.133,0.087,east,14.2,Yes
2020/01/29,12:40,0.172,-,0.261,0.242,0.247,0.133,0.087,east-northeast,14.7,Yes
2020/01/29,12:50,0.172,-,0.259,0.244,0.248,0.134,0.087,east-northeast,9.0,Yes
2020/01/29,13:00,0.173,-,0.256,0.240,0.246,0.134,0.088,-,CALM,Yes
2020/01/29,13:10,0.172,-,0.257,0.240,0.247,0.138,0.091,southeast,8.5,Yes
2020/01/29,13:20,0.171,-,0.257,0.243,0.250,0.138,0.092,west-southwest,7.3,Yes
2020/01/29,13:30,0.172,-,0.257,0.243,0.250,0.138,0.091,west-northwest,12.5,Yes
2020/01/29,13:40,0.172,-,0.258,0.246,0.250,0.138,0.091,northwest,13.3,Yes
2020/01/29,13:50,0.173,-,0.262,0.245,0.251,0.138,0.090,west-northwest,13.3,Yes
2020/01/29,14:00,0.174,-,0.262,0.245,0.251,0.137,0.090,west-northwest,11.5,No
2020/01/29,14:10,0.176,-,0.260,0.246,0.249,0.136,0.088,west-northwest,11.1,No
2020/01/29,14:20,0.173,-,0.261,0.244,0.249,0.134,0.088,west-northwest,10.6,No
2020/01/29,14:30,0.174,-,0.260,0.243,0.246,0.133,0.087,west-northwest,12.0,No
2020/01/29,14:40,0.173,-,0.260,0.244,0.248,0.133,0.085,northwest,13.1,No
2020/01/29,14:50,0.171,-,0.259,0.242,0.246,0.131,0.085,northwest,12.6,No
2020/01/29,15:00,0.173,-,0.260,0.242,0.248,0.132,0.084,northwest,12.2,No
2020/01/29,15:10,0.173,-,0.261,0.243,0.246,0.131,0.084,northwest,12.8,No
2020/01/29,15:20,0.173,0.156,0.260,0.243,0.247,0.132,0.083,northwest,12.6,No
2020/01/29,15:30,0.172,0.157,0.260,0.245,0.246,0.131,0.083,northwest,12.5,No
2020/01/29,15:40,0.174,0.157,0.262,0.244,0.245,0.131,0.083,northwest,11.5,No
2020/01/29,15:50,0.174,0.156,0.262,0.244,0.247,0.131,0.084,northwest,13.6,No
2020/01/29,16:00,0.173,0.156,0.261,0.243,0.247,0.132,0.084,northwest,12.3,No
2020/01/29,16:10,0.173,0.158,0.262,0.243,0.246,0.131,0.083,northwest,12.0,No
2020/01/29,16:20,0.173,0.156,0.263,0.244,0.247,0.133,0.083,northwest,12.3,No
2020/01/29,16:30,0.174,0.156,0.261,0.245,0.247,0.133,0.084,northwest,13.1,No
2020/01/29,16:40,0.174,0.157,0.263,0.244,0.247,0.132,0.084,northwest,13.1,No
2020/01/29,16:50,0.174,0.158,0.261,0.244,0.247,0.131,0.084,west-northwest,12.8,No
2020/01/29,17:00,0.174,0.155,0.262,0.246,0.245,0.132,0.083,northwest,14.2,No
2020/01/29,17:10,0.175,0.157,0.261,0.244,0.247,0.132,0.083,northwest,11.7,No
2020/01/29,17:20,0.175,0.156,0.263,0.246,0.247,0.132,0.083,west-northwest,10.3,No
2020/01/29,17:30,0.173,0.157,0.262,0.246,0.246,0.132,0.083,west-northwest,10.7,No
2020/01/29,17:40,0.174,0.156,0.261,0.244,0.246,0.132,0.083,west-northwest,11.8,No
2020/01/29,17:50,0.175,0.158,0.263,0.244,0.247,0.132,0.083,northwest,12.6,No
2020/01/29,18:00,0.174,0.158,0.263,0.247,0.248,0.132,0.083,northwest,10.9,No
2020/01/29,18:10,0.175,0.158,0.263,0.244,0.247,0.132,0.084,northwest,10.1,No
2020/01/29,18:20,0.176,0.157,0.262,0.244,0.247,0.133,0.083,northwest,9.0,No
2020/01/29,18:30,0.175,0.157,0.265,0.244,0.247,0.132,0.083,northwest,7.9,No
2020/01/29,18:40,0.174,0.157,0.263,0.245,0.246,0.132,0.083,northwest,6.6,No
2020/01/29,18:50,0.176,0.157,0.263,0.246,0.247,0.133,0.083,west-northwest,6.7,No
2020/01/29,19:00,0.175,0.156,0.263,0.243,0.247,0.133,0.083,northwest,8.4,No
2020/01/29,19:10,0.175,0.157,0.264,0.245,0.246,0.132,0.083,west-northwest,7.4,No
2020/01/29,19:20,0.175,0.157,0.263,0.247,0.247,0.133,0.083,northwest,6.5,No
2020/01/29,19:30,0.176,0.158,0.264,0.245,0.247,0.133,0.083,north-northwest,4.4,No
2020/01/29,19:40,0.174,0.158,0.265,0.246,0.248,0.133,0.084,northwest,3.7,No
2020/01/29,19:50,0.175,0.158,0.264,0.247,0.247,0.132,0.083,west-northwest,3.5,No
2020/01/29,20:00,0.175,0.157,0.263,0.246,0.247,0.133,0.083,west-northwest,6.1,No
2020/01/29,20:10,0.175,0.158,0.265,0.246,0.247,0.132,0.083,west-northwest,7.7,No
2020/01/29,20:20,0.176,0.159,0.264,0.247,0.247,0.134,0.083,west-northwest,8.7,No
2020/01/29,20:30,0.175,0.157,0.262,0.245,0.246,0.133,0.084,west-northwest,10.3,No
2020/01/29,20:40,0.176,0.158,0.263,0.245,0.247,0.133,0.083,west-northwest,8.5,No
2020/01/29,20:50,0.173,0.158,0.264,0.245,0.246,0.133,0.083,west-northwest,8.7,No
2020/01/29,21:00,0.176,0.158,0.264,0.244,0.246,0.133,0.084,west-northwest,8.1,No
2020/01/29,21:10,0.176,0.157,0.264,0.246,0.248,0.133,0.082,west-northwest,6.0,No
2020/01/29,21:20,0.175,0.158,0.264,0.246,0.248,0.134,0.083,west-northwest,6.1,No
2020/01/29,21:30,0.175,0.157,0.265,0.246,0.247,0.134,0.083,west-northwest,7.4,No
2020/01/29,21:40,0.175,0.158,0.264,0.247,0.247,0.134,0.083,northwest,9.0,No
2020/01/29,21:50,0.175,0.157,0.264,0.246,0.246,0.133,0.084,northwest,7.9,No
2020/01/29,22:00,0.175,0.158,0.266,0.246,0.247,0.133,0.083,northwest,7.6,No
2020/01/29,22:10,0.175,0.158,0.265,0.245,0.247,0.133,0.083,northwest,6.6,No
2020/01/29,22:20,0.175,0.157,0.265,0.247,0.248,0.134,0.084,northwest,6.4,No
2020/01/29,22:30,0.176,0.157,0.264,0.247,0.248,0.133,0.083,northwest,4.8,No
2020/01/29,22:40,0.175,0.156,0.265,0.246,0.248,0.134,0.083,north-northwest,4.3,No
2020/01/29,22:50,0.175,0.158,0.265,0.246,0.247,0.134,0.083,north-northwest,3.3,No
2020/01/29,23:00,0.177,0.159,0.265,0.247,0.247,0.134,0.084,north-northwest,2.6,No
2020/01/29,23:10,0.176,0.158,0.265,0.247,0.247,0.134,0.084,north-northwest,0.7,No
2020/01/29,23:20,0.176,0.158,0.264,0.246,0.248,0.134,0.084,west-southwest,2.9,No
2020/01/29,23:30,0.176,0.158,0.266,0.247,0.248,0.134,0.083,west-northwest,3.2,No
2020/01/29,23:40,0.175,0.158,0.266,0.246,0.248,0.135,0.083,west,5.1,No
2020/01/29,23:50,0.175,0.158,0.265,0.247,0.247,0.135,0.083,west,8.1,No
